Vertical_Velocity
2 -7 1 -3 -6 -3 2 -1 -1 -1 -3 -3 -4 1 3 -3 1 -1 -3 -1 -1 -0 -3 -1 -3 -4 -0 -1 -1 0 0 2 3 1 10 3 1 1 -3 1 4 14 8
-4 0 -2 -4 1 2 -1 -4 -2 -3 -3 -5 -3 2 -0 -0 2 -1 -3 -2 -2 1 0 -2 -3 -3 -3 -2 -0 -2 -1 -0 5 3 0 -5 -5 -2 -3 -7 0 -4 6
1 3 0 0 2 0 -2 -1 -1 -3 -5 -3 1 1 -1 -0 -0 -1 -3 -1 -1 1 -1 -1 -4 1 1 -3 1 -1 0 -1 0 2 3 3 2 -3 5 -6 -13 4 2
6 2 -1 1 -0 -3 -2 1 -2 -4 -2 -0 2 1 -3 -1 -1 -0 -2 0 -0 0 -2 -0 -1 -2 1 -3 -3 1 1 0 2 3 3 -0 2 6 9 13 -0 3 -1
2 1 -0 -3 0 -2 -2 -2 -2 -3 -1 1 -4 0 -1 -1 -1 -1 -1 1 -2 1 -2 -1 1 -1 -4 -1 -2 -3 1 -1 -0 -0 -0 2 4 3 6 9 -1 -1 3
3 3 -0 -1 0 -1 -0 -1 -2 -2 -1 -0 -1 -1 -2 -1 -1 -1 -1 1 -2 1 -0 -2 -0 -1 -0 -3 -2 -2 -4 -2 1 -2 -0 -0 2 5 8 7 4 8 0
0 2 1 1 1 -0 1 -3 -1 -1 0 -1 0 -1 -2 -1 -1 -0 0 -1 -0 -1 0 -0 -1 -1 1 -1 -1 -3 -1 -2 -1 -1 -0 1 0 -1 1 4 6 6 1
0 2 0 2 2 -1 -2 -4 1 0 -1 -1 1 -1 -2 -1 -1 0 1 0 -0 -0 -1 0 -0 -1 -2 -1 0 -2 -2 -3 -1 0 0 0 1 1 2 -1 -1 -1 2
3 3 1 2 0 -1 -2 -1 -1 -1 -2 1 0 -2 -1 -0 -1 -0 -0 -0 -1 -1 -0 -0 -0 -1 -0 -0 -1 0 -0 -1 2 0 -0 -0 0 -0 -0 1 2 2 1
4 1 0 1 -2 -1 -0 -2 0 -2 1 -0 -0 -1 -1 -1 0 -1 -1 -0 -2 -1 -1 -2 -1 -1 1 0 -1 -1 -2 -2 -1 -1 -0 -1 -2 -2 -1 0 0 1 2
-0 3 3 1 -2 -1 -1 -1 -0 -1 -0 1 1 -0 0 -1 0 -0 -1 -1 -1 -2 -2 -1 -2 -1 -1 -1 0 0 -0 0 -1 -2 -3 -2 -1 -0 -0 -2 -2 -1 -1
3 2 -1 -2 1 -0 -2 1 -0 -1 0 1 -0 -0 -0 -0 -0 0 -1 -1 -0 -0 -0 1 0 0 -1 0 0 0 -0 -0 -1 -1 -0 -0 -1 -1 -3 -2 -1 -0 -1
-1 -1 -1 0 1 -0 -2 0 -0 -0 0 -0 -0 -0 -0 -0 0 -2 -1 -1 -1 -1 -1 -2 -1 -0 -0 -1 -1 -1 -1 -2 -3 -3 -2 -1 -0 1 2 2 2 0 0
-2 -0 -1 1 1 -0 -1 1 0 0 -0 0 -0 -1 -0 -1 -0 1 -1 -1 -1 -1 -1 -0 -1 -2 -2 -2 -2 -2 -2 -4 -4 -4 -3 -1 -2 -1 -1 -0 1 1 2
-0 1 0 1 -0 -1 0 0 1 0 1 1 -0 -1 -0 -0 -0 -0 -0 -1 -1 -1 -1 -0 -1 -0 -0 -0 -0 -1 -2 -3 -3 -2 -1 -1 -1 -1 -1 -1 -2 -1 -1
0 0 1 0 -1 -0 0 0 0 0 0 0 -0 -0 -0 0 -0 -1 0 -0 -1 -1 -1 -0 -1 -1 -1 -0 -0 -1 -2 -2 -2 -2 -2 -2 -1 -1 -0 -1 -1 -1 -1
-0 0 1 0 0 -0 -0 0 0 -1 -1 0 0 0 -0 1 1 -1 -0 0 -0 -0 -1 0 1 1 1 -0 -1 -2 -2 -3 -2 -2 -1 -0 -1 -1 -1 -1 -0 0 -0
1 -1 1 1 -0 -0 0 1 1 2 0 -0 1 1 1 0 1 1 1 -0 -1 -0 0 -0 1 1 1 0 -1 -1 -2 -2 -2 -2 -2 -2 -2 -2 -1 -1 -1 -1 -1
-1 -1 2 1 -1 -1 1 2 1 2 1 1 1 1 2 1 2 2 1 0 0 -0 -1 0 0 0 0 -0 -1 -1 -1 -1 -1 -2 -2 -1 -2 -2 -2 -2 -2 -1 -2
-0 0 1 1 -0 -1 1 2 1 1 1 0 0 0 2 0 0 2 2 1 0 -0 1 -1 0 0 -1 -1 -1 -1 -1 -1 -1 -1 -1 -1 -1 -1 -1 -2 -2 -2 -1
-2 0 1 2 1 0 1 1 1 1 1 1 0 2 -0 0 1 1 -0 1 0 1 -1 -1 0 0 -0 -1 -1 -1 -1 -1 -1 -1 -1 -0 -1 -1 -1 -2 -2 -2 -1
-1 1 1 2 0 1 1 1 1 1 1 1 1 1 -0 -1 -0 -1 0 -0 1 -0 -0 -0 0 -0 -1 -1 -1 -1 -1 -1 -1 -1 -1 -1 -1 -1 -1 -2 -1 -1 -1
0 2 2 1 0 1 1 1 1 1 1 1 1 1 0 0 0 0 0 -0 0 -0 -0 0 -0 -0 -0 -0 -0 -1 -0 -0 -1 -1 -1 -1 -1 -1 -1 -1 -2 -1 -1
1 1 1 0 1 1 1 1 1 0 -0 1 1 0 0 -0 0 1 1 2 2 0 -0 -0 -1 -0 -0 -0 -1 -1 -1 -1 -1 -1 -1 -1 -2 -1 -2 -2 -2 -2 -2
1 1 0 0 0 0 1 1 1 0 0 1 0 -1 -0 0 1 1 -0 -1 -1 -0 0 0 0 -0 -0 -1 -1 -1 -1 -1 -1 -1 -1 -1 -1 -1 -2 -2 -2 -2 -1
1 0 0 0 0 1 1 0 -0 0 -0 -1 -1 -0 1 0 -0 -1 -0 0 -0 -0 -0 0 -0 -0 -1 -1 -0 -0 -0 -1 -1 -1 -0 -0 -1 -1 -1 -1 -1 -1 -1
Height
3061 3062 3063 3062 3061 3061 3059 3057 3056 3053 3050 3047 3046 3043 3040 3038 3034 3030 3026 3023 3018 3012 3007 3000 2993 2984 2976 2969 2962 2960 2958 2956 2955 2955 2956 2957 2960 2963 2963 2964 2967 2969 2973
3055 3057 3058 3057 3055 3054 3053 3052 3050 3047 3045 3043 3041 3039 3037 3034 3031 3027 3024 3021 3017 3012 3006 3000 2994 2986 2977 2970 2964 2962 2959 2957 2956 2955 2956 2958 2959 2959 2961 2964 2965 2967 2970
3050 3051 3051 3050 3050 3049 3048 3047 3045 3043 3041 3038 3036 3035 3033 3031 3029 3025 3022 3019 3015 3011 3006 3000 2995 2988 2982 2974 2968 2964 2961 2959 2957 2957 2956 2957 2958 2959 2960 2962 2965 2965 2968
3044 3045 3045 3046 3045 3044 3043 3041 3039 3038 3035 3034 3032 3031 3029 3028 3026 3023 3020 3017 3014 3010 3005 3000 2995 2990 2985 2979 2973 2968 2965 2962 2960 2958 2957 2957 2958 2958 2960 2960 2963 2962 2963
3038 3039 3040 3041 3040 3038 3037 3036 3034 3031 3030 3029 3028 3027 3026 3025 3023 3021 3018 3015 3013 3009 3004 3000 2996 2991 2988 2983 2978 2973 2968 2965 2961 2959 2958 2958 2959 2959 2960 2961 2961 2962 2963
3032 3033 3033 3035 3034 3032 3031 3029 3028 3026 3026 3025 3023 3023 3023 3022 3020 3018 3016 3013 3011 3008 3004 3000 2996 2992 2988 2985 2981 2976 2972 2969 2965 2962 2960 2959 2959 2959 2959 2959 2960 2961 2962
3025 3026 3027 3028 3027 3026 3024 3023 3023 3022 3021 3020 3020 3019 3019 3018 3017 3015 3014 3012 3009 3006 3003 3000 2997 2994 2990 2986 2983 2979 2976 2972 2970 2967 2964 2962 2960 2960 2958 2959 2958 2958 2959
3018 3020 3021 3021 3020 3019 3018 3018 3017 3016 3016 3016 3016 3015 3015 3014 3013 3012 3011 3009 3007 3004 3002 2999 2996 2994 2991 2987 2984 2981 2978 2976 2973 2971 2968 2966 2964 2962 2961 2960 2959 2958 2956
3012 3013 3014 3014 3014 3013 3012 3012 3012 3011 3011 3011 3011 3010 3010 3009 3009 3009 3008 3006 3004 3002 3000 2998 2996 2993 2991 2988 2985 2982 2980 2977 2975 2973 2970 2968 2966 2964 2962 2961 2959 2958 2957
3006 3007 3007 3008 3007 3007 3006 3006 3006 3006 3006 3006 3006 3005 3005 3005 3005 3004 3004 3003 3001 3000 2998 2996 2995 2992 2990 2988 2985 2983 2980 2978 2975 2973 2970 2968 2966 2965 2963 2961 2960 2959 2957
2998 3000 3001 3000 3000 3000 3000 3000 3001 3001 3001 3001 3001 3001 3001 3001 3001 3000 2999 2998 2997 2996 2995 2994 2992 2990 2989 2986 2984 2981 2979 2977 2975 2972 2969 2967 2965 2963 2961 2960 2959 2957 2956
2992 2994 2994 2994 2994 2994 2994 2995 2995 2995 2996 2996 2996 2996 2996 2996 2996 2996 2995 2994 2993 2992 2991 2990 2988 2987 2985 2984 2982 2980 2977 2975 2973 2970 2968 2966 2963 2961 2959 2957 2955 2954 2953
2986 2987 2987 2988 2988 2988 2989 2989 2989 2990 2990 2990 2990 2991 2991 2991 2991 2990 2990 2990 2989 2988 2987 2986 2984 2983 2982 2980 2978 2976 2974 2972 2970 2967 2965 2963 2960 2958 2956 2954 2952 2950 2949
2979 2980 2981 2981 2982 2983 2983 2984 2984 2985 2985 2985 2985 2986 2986 2986 2986 2985 2985 2985 2984 2983 2982 2981 2980 2979 2978 2976 2975 2973 2970 2968 2965 2963 2960 2957 2955 2953 2951 2948 2946 2944 2943
2973 2974 2975 2976 2977 2977 2977 2978 2978 2979 2979 2980 2980 2980 2980 2980 2980 2980 2980 2980 2979 2978 2977 2976 2975 2974 2972 2971 2970 2968 2966 2964 2961 2958 2955 2952 2949 2947 2945 2944 2942 2940 2937
2968 2969 2969 2970 2971 2971 2972 2972 2972 2973 2974 2974 2974 2974 2974 2974 2974 2974 2974 2974 2973 2973 2972 2971 2970 2968 2967 2966 2964 2963 2960 2958 2955 2952 2950 2947 2944 2942 2939 2937 2936 2934 2933
2963 2963 2963 2964 2965 2965 2965 2966 2966 2966 2967 2967 2967 2967 2968 2968 2968 2967 2968 2968 2967 2967 2966 2965 2964 2963 2961 2960 2958 2956 2954 2952 2949 2946 2944 2941 2939 2936 2934 2932 2930 2927 2926
2957 2957 2957 2958 2958 2959 2959 2959 2960 2960 2960 2961 2961 2961 2960 2961 2961 2960 2961 2961 2961 2960 2959 2959 2958 2956 2955 2954 2952 2950 2947 2944 2942 2940 2937 2935 2933 2930 2928 2926 2923 2921 2918
2950 2950 2950 2951 2952 2952 2952 2952 2952 2953 2953 2954 2954 2953 2953 2953 2954 2953 2953 2953 2953 2953 2952 2951 2951 2949 2948 2947 2945 2943 2940 2938 2935 2933 2931 2929 2926 2924 2922 2920 2917 2915 2912
2943 2944 2944 2945 2946 2945 2945 2944 2945 2945 2945 2945 2945 2945 2945 2945 2946 2946 2946 2946 2946 2946 2945 2944 2944 2943 2941 2939 2937 2935 2933 2931 2928 2926 2924 2922 2920 2918 2915 2913 2911 2908 2906
2937 2937 2937 2938 2938 2938 2937 2937 2937 2937 2937 2936 2936 2937 2936 2936 2937 2938 2938 2938 2939 2938 2938 2937 2936 2935 2934 2932 2930 2928 2926 2924 2921 2919 2917 2915 2913 2911 2909 2906 2904 2901 2899
2931 2931 2930 2931 2931 2930 2930 2929 2929 2929 2929 2929 2929 2929 2929 2929 2930 2930 2931 2931 2931 2931 2930 2930 2929 2928 2927 2925 2923 2920 2918 2916 2914 2912 2910 2908 2906 2904 2901 2899 2897 2894 2891
2923 2923 2924 2924 2923 2923 2922 2922 2922 2922 2922 2922 2922 2922 2922 2922 2923 2924 2924 2924 2924 2924 2923 2923 2922 2921 2919 2917 2915 2913 2911 2909 2907 2905 2903 2901 2899 2896 2894 2891 2889 2887 2884
2916 2917 2917 2916 2916 2915 2915 2915 2915 2915 2915 2915 2915 2916 2916 2917 2917 2917 2918 2918 2917 2916 2916 2915 2914 2913 2911 2910 2908 2906 2904 2902 2900 2898 2896 2894 2892 2889 2887 2885 2882 2880 2877
2910 2910 2910 2910 2909 2909 2909 2908 2908 2909 2909 2909 2910 2910 2910 2911 2911 2911 2911 2911 2910 2910 2909 2908 2907 2906 2904 2902 2901 2899 2897 2895 2893 2891 2889 2887 2885 2882 2880 2878 2875 2873 2870
2904 2904 2904 2903 2903 2903 2903 2903 2903 2903 2903 2904 2904 2904 2905 2906 2906 2906 2905 2905 2904 2903 2902 2901 2900 2898 2897 2895 2893 2891 2890 2888 2886 2884 2882 2880 2878 2875 2873 2871 2868 2866 2863